Weather History for KBXA - February, 2014

Change the Weather History Date:

Sunday, February 2, 2014

  Actual Average Record
Temperature  
Mean Temperature 66 °F -  
Max Temperature 72 °F - - ()
Min Temperature 52 °F - - ()
Growing Degree Days 16 (Base 50)    
Moisture  
Dew Point 64 °F    
Average Humidity 89    
Maximum Humidity 91    
Minimum Humidity 81    
Precipitation  
Precipitation 0.39 in - - ()
Sea Level Pressure  
Sea Level Pressure 29.99 in    
Wind  
Wind Speed 8 mph (South)    
Max Wind Speed 16 mph    
Max Gust Speed 28 mph    
Visibility 5 miles    
Events Rain , Thunderstorm    
T = Trace of Precipitation, MM = Missing Value Source: NWS Daily Summary

Daily Weather History Graph

Daily Weather History Graph

Search for Another Location

Airport or City:

Trip Planner

Search our weather history database for the weather conditions in past years. The results will help you decide how hot, cold, wet, or windy it might be!

Date:

Astronomy

Feb. 02, 2014 Rise Set
Actual Time 6:50 AM CST 5:36 PM CST
Civil Twilight 6:25 AM CST 6:01 PM CST
Nautical Twilight 5:56 AM CST 6:30 PM CST
Astronomical Twilight 5:27 AM CST 6:58 PM CST
Moon 8:33 AM CST (2/2) 9:01 PM CST (2/2)
Length of Visible Light 11h 36m
Length of Day
10h 45m
Waxing Crescent, 11% of the Moon is Illuminated
Feb 2
Waxing Crescent
Feb 6
First Quarter
Feb 14
Full
Feb 22
Last Quarter
Mar 1
New

Hourly Weather History & Observations

Time (CST) Temp. Dew Point Humidity Pressure Visibility Wind Dir Wind Speed Gust Speed Precip Events Conditions
12:15 AM 64.4 °F 60.8 °F 88% 30.05 in 7.0 mi SSE 10.4 mph 16.1 mph N/A   Unknown
12:35 AM 64.0 °F 60.8 °F 89% 30.05 in 7.0 mi SSE 8.1 mph - N/A   Unknown
12:55 AM 64.0 °F 60.8 °F 89% 30.04 in 7.0 mi SSE 9.2 mph - N/A   Unknown
1:15 AM 63.9 °F 60.8 °F 90% 30.05 in 7.0 mi SSE 6.9 mph - N/A   Unknown
1:35 AM 64.0 °F 60.8 °F 89% 30.05 in 10.0 mi SSE 9.2 mph - N/A   Unknown
1:55 AM 64.0 °F 60.8 °F 89% 30.05 in 10.0 mi SSE 4.6 mph - N/A   Unknown
2:15 AM 64.2 °F 60.8 °F 89% 30.04 in 10.0 mi SSE 4.6 mph - N/A   Unknown
2:35 AM 64.2 °F 61.2 °F 90% 30.04 in 4.0 mi SSE 5.8 mph - N/A   Mist
2:55 AM 64.4 °F 61.3 °F 90% 30.03 in 2.0 mi SSE 5.8 mph - N/A   Mist
3:15 AM 64.4 °F 61.7 °F 91% 30.04 in 2.5 mi SSE 4.6 mph - N/A   Mist
3:35 AM 64.4 °F 61.7 °F 91% 30.04 in 4.0 mi SSE 4.6 mph - N/A   Mist
3:55 AM 64.4 °F 61.7 °F 91% 30.04 in 2.0 mi SSE 4.6 mph - N/A   Mist
4:15 AM 64.4 °F 61.7 °F 91% 30.04 in 1.2 mi SSE 4.6 mph - N/A   Mist
4:35 AM 64.6 °F 61.9 °F 91% 30.03 in 2.0 mi SSE 6.9 mph - N/A   Mist
4:55 AM 64.6 °F 61.9 °F 91% 30.04 in 3.0 mi South 4.6 mph - N/A   Mist
5:15 AM 64.8 °F 62.1 °F 91% 30.04 in 5.0 mi SSE 4.6 mph - N/A Rain Rain
5:35 AM 64.8 °F 62.1 °F 91% 30.03 in 4.0 mi SSE 4.6 mph - N/A   Mist
5:55 AM 64.9 °F 62.2 °F 91% 30.03 in 4.0 mi SE 3.5 mph - N/A   Light Drizzle
6:15 AM 65.1 °F 62.4 °F 91% 30.03 in 4.0 mi SE 5.8 mph - N/A   Drizzle
6:35 AM 65.3 °F 62.6 °F 91% 30.04 in 5.0 mi SSE 6.9 mph - 0.01 in   Mist
6:55 AM 65.3 °F 62.6 °F 91% 30.04 in 4.0 mi SSE 8.1 mph - 0.01 in   Mist
7:15 AM 65.5 °F 62.6 °F 90% 30.04 in 3.0 mi SSE 4.6 mph - N/A   Mist
7:35 AM 65.5 °F 62.8 °F 91% 30.05 in 2.0 mi SSE 4.6 mph - N/A   Mist
7:55 AM 65.7 °F 62.8 °F 90% 30.05 in 2.0 mi SSE 6.9 mph - N/A   Mist
8:15 AM 65.8 °F 63.0 °F 90% 30.05 in 3.0 mi SSE 4.6 mph - N/A   Mist
8:35 AM 66.2 °F 63.1 °F 90% 30.05 in 4.0 mi SSE 4.6 mph - N/A   Mist
8:55 AM 66.2 °F 63.1 °F 90% 30.05 in 4.0 mi SSE 8.1 mph - N/A   Mist
9:15 AM 66.2 °F 63.3 °F 90% 30.05 in 4.0 mi SSE 10.4 mph 16.1 mph N/A   Mist
9:35 AM 66.4 °F 63.5 °F 90% 30.04 in 5.0 mi SE 4.6 mph - N/A   Mist
9:55 AM 66.4 °F 63.5 °F 90% 30.04 in 4.0 mi SE 5.8 mph - 0.01 in Rain Rain
10:15 AM 66.4 °F 63.1 °F 89% 30.04 in 2.5 mi SSE 8.1 mph - 0.07 in Rain Heavy Rain
10:35 AM 66.2 °F 63.1 °F 90% 30.03 in 5.0 mi SE 5.8 mph - 0.14 in Rain Light Rain
10:55 AM 66.2 °F 63.0 °F 89% 30.03 in 7.0 mi SE 9.2 mph - 0.14 in   Unknown
11:15 AM 66.4 °F 63.3 °F 90% 30.02 in 3.0 mi SSE 5.8 mph - N/A Rain Rain
11:35 AM 66.6 °F 63.5 °F 90% 30.01 in 4.0 mi SSE 6.9 mph - 0.01 in   Light Drizzle
11:55 AM 67.1 °F 63.9 °F 89% 29.99 in 4.0 mi SE 3.5 mph - 0.01 in   Drizzle
12:15 PM 67.1 °F 63.7 °F 89% 29.98 in 3.0 mi SSE 9.2 mph - 0.02 in Rain Light Rain
12:35 PM 67.3 °F 64.4 °F 90% 29.97 in 4.0 mi South 10.4 mph - 0.02 in   Mist
12:55 PM 67.5 °F 64.4 °F 90% 29.95 in 3.0 mi SSE 10.4 mph 17.3 mph 0.02 in Thunderstorm Mist
1:15 PM 67.6 °F 64.6 °F 90% 29.94 in 1.8 mi South 12.7 mph 18.4 mph N/A   Mist
1:35 PM 68.0 °F 64.8 °F 89% 29.94 in 2.5 mi South 9.2 mph - 0.01 in Rain Rain
1:55 PM 68.4 °F 65.3 °F 90% 29.94 in 1.8 mi SSE 9.2 mph - 0.04 in Rain , Thunderstorm Rain
2:15 PM 68.5 °F 65.5 °F 90% 29.93 in 3.0 mi South 5.8 mph - 0.01 in Rain Light Rain
2:35 PM 68.9 °F 65.8 °F 90% 29.92 in 2.0 mi SSE 10.4 mph - 0.04 in Rain Rain
2:55 PM 69.1 °F 66.2 °F 91% 29.92 in 3.0 mi South 8.1 mph - 0.04 in   Drizzle
3:15 PM 69.8 °F 66.6 °F 89% 29.92 in 5.0 mi South 12.7 mph 18.4 mph N/A Rain , Thunderstorm Light Thunderstorms and Rain
3:35 PM 69.8 °F 66.6 °F 89% 29.92 in 3.0 mi South 9.2 mph 18.4 mph 0.03 in Rain , Thunderstorm Rain
3:55 PM 69.4 °F 66.4 °F 90% 29.93 in 4.0 mi South 10.4 mph - 0.04 in Rain Light Rain
4:15 PM 69.4 °F 66.2 °F 89% 29.93 in 5.0 mi South 8.1 mph - N/A   Mist
4:35 PM 69.3 °F 66.2 °F 90% 29.92 in 5.0 mi South 11.5 mph - N/A   Mist
4:55 PM 69.3 °F 66.2 °F 90% 29.92 in 4.0 mi South 12.7 mph 18.4 mph N/A   Mist
5:15 PM 69.4 °F 66.2 °F 89% 29.92 in 5.0 mi South 11.5 mph 20.7 mph N/A   Mist
5:35 PM 69.6 °F 66.2 °F 89% 29.92 in 4.0 mi South 8.1 mph - N/A   Mist
5:55 PM 69.6 °F 66.4 °F 89% 29.93 in 4.0 mi South 10.4 mph 18.4 mph N/A   Mist
6:15 PM 69.8 °F 66.4 °F 89% 29.93 in 5.0 mi South 12.7 mph 17.3 mph N/A   Mist
6:35 PM 69.8 °F 66.4 °F 89% 29.92 in 5.0 mi South 11.5 mph - N/A   Mist
6:55 PM 70.0 °F 66.6 °F 89% 29.92 in 5.0 mi South 12.7 mph - N/A   Mist
7:15 PM 70.2 °F 66.7 °F 89% 29.93 in 7.0 mi South 9.2 mph 17.3 mph N/A   Unknown
7:35 PM 70.3 °F 67.1 °F 89% 29.93 in 4.0 mi SSW 10.4 mph - 0.06 in Rain Light Rain
7:55 PM 70.7 °F 67.3 °F 89% 29.93 in 7.0 mi SSW 11.5 mph - 0.06 in Rain Rain
8:15 PM 70.9 °F 67.3 °F 88% 29.93 in 7.0 mi SSW 9.2 mph - N/A Rain Rain
8:35 PM 71.1 °F 67.5 °F 88% 29.93 in 10.0 mi SSW 9.2 mph - N/A   Unknown
8:55 PM 71.6 °F 68.0 °F 88% 29.93 in 10.0 mi SSW 11.5 mph 17.3 mph 0.01 in Rain Light Rain
9:15 PM 71.6 °F 68.0 °F 88% 29.94 in 7.0 mi SW 13.8 mph 19.6 mph 0.01 in   Light Drizzle
9:35 PM 71.8 °F 68.0 °F 88% 29.94 in 7.0 mi SW 10.4 mph 17.3 mph 0.01 in   Unknown
9:55 PM 72.0 °F 68.0 °F 87% 29.94 in 10.0 mi SSW 11.5 mph 16.1 mph 0.01 in   Unknown
10:15 PM 72.1 °F 68.0 °F 87% 29.94 in 10.0 mi SSW 12.7 mph 18.4 mph N/A   Unknown
10:35 PM 72.1 °F 67.6 °F 86% 29.95 in 10.0 mi SW 15.0 mph 23.0 mph N/A   Unknown
10:55 PM 72.0 °F 67.5 °F 86% 29.94 in 10.0 mi SW 13.8 mph 21.9 mph N/A   Unknown
11:15 PM 72.0 °F 67.5 °F 86% 29.95 in 10.0 mi SW 10.4 mph 17.3 mph N/A   Unknown
11:35 PM 59.7 °F 54.0 °F 81% 29.98 in 10.0 mi NW 16.1 mph 27.6 mph N/A   Unknown
11:55 PM 52.9 °F 49.1 °F 87% 30.00 in 10.0 mi North 12.7 mph - N/A Rain Light Rain